Meteo Giornale » Osservazioni meteo Croazia » Pula Aerodrome

ore: 04:00 - Osservazioni Meteo Pula Aerodrome
Lat. 45° 54' N Lon. 13° 55' E Alt. 63 metri s.l.m.

nuvoloso Europe/Zagreb

23 °C

Nuvoloso

Temp. 24 Ore

18 °C

27 °C

Ovest/Sud-Ovest

14.8 Km/h

Dew point 18 °C

Umidità 73 %

Visibilità  10 Km

Il sole sorge alle ore 06:52

Il sole tramonta alle ore 18:59

Data e Ora Cielo e Fenomeni T °C DP °C Um. % Pres. hPa Vis. km Vento km/h
Oggi h: 04:00 nuvoloso Nuvoloso 23 18 73 1010 10 O/SO 14.8
Oggi h: 03:30 nuvoloso Nuvoloso 23 18 73 1010 10 SO 11.1
Oggi h: 03:00 nuvoloso Nuvoloso 23 18 73 1011 10 SO 16.7
Oggi h: 02:30 nuvoloso Nuvoloso 23 18 73 1011 10 SO 16.7
Oggi h: 02:00 poco_nuvoloso Poco Nuvoloso 23 17 68 1011 10 S/SO 11.1
Oggi h: 01:30 poco_nuvoloso Poco Nuvoloso 23 19 78 1011 10 S/SO 9.3
Oggi h: 01:00 poco_nuvoloso Poco Nuvoloso 23 21 88 1011 10 S 7.4
Oggi h: 00:30 poco_nuvoloso Poco Nuvoloso 23 22 94 1012 9 S/SE 7.4
Oggi h: 00:00 nuvoloso Nuvoloso 23 22 94 1013 7 S 9.3
Ieri h: 23:30 molto_nuvoloso Molto Nuvoloso 23 22 94 1013 10 S/SE 11.1
Ieri h: 23:00 molto_nuvoloso Molto Nuvoloso 23 22 94 1013 10 SE 9.3
Ieri h: 22:30 molto_nuvoloso Molto Nuvoloso 23 22 94 1013 10 E/SE 9.3
Ieri h: 22:00 molto_nuvoloso Molto Nuvoloso 23 22 94 1014 10 E/SE 7.4
Ieri h: 21:30 molto_nuvoloso Molto Nuvoloso 23 22 94 1014 10 E/SE 7.4
Ieri h: 21:00 molto_nuvoloso Molto Nuvoloso 22 21 94 1015 10 N 5.5
Ieri h: 20:30 molto_nuvoloso Molto Nuvoloso 22 21 94 1015 10 N 5.5
Ieri h: 20:00 molto_nuvoloso Molto Nuvoloso 21 20 94 1015 10 E 7.4
Ieri h: 19:30 molto_nuvoloso Molto Nuvoloso 22 20 88 1015 10 E 7.4
Ieri h: 19:00 molto_nuvoloso Molto Nuvoloso 22 20 88 1015 10 E 7.4
Ieri h: 18:30 nuvoloso Nuvoloso 24 21 83 1015 10 SE 7.4
Ieri h: 18:00 poco_nuvoloso Poco Nuvoloso 25 20 73 1016 10 S/SE 11.1
Ieri h: 17:30 sereno Sereno 26 20 69 1016 10 S/SE 11.1
Ieri h: 17:00 sereno Sereno 26 18 61 1016 10 S 9.3
Ieri h: 16:30 poco_nuvoloso Poco Nuvoloso 26 19 65 1017 10 S 9.3
Ieri h: 16:00 poco_nuvoloso Poco Nuvoloso 27 19 61 1017 10 S/SO 11.1
Ieri h: 15:30 poco_nuvoloso Poco Nuvoloso 27 19 61 1017 10 S/SE 11.1
Ieri h: 15:00 poco_nuvoloso Poco Nuvoloso 25 21 78 1018 10 E/SE 13
Ieri h: 14:30 poco_nuvoloso Poco Nuvoloso 25 21 78 1018 10 E/SE 14.8
Ieri h: 14:00 poco_nuvoloso Poco Nuvoloso 25 20 73 1018 10 E/SE 18.5
Ieri h: 13:30 poco_nuvoloso Poco Nuvoloso 25 20 73 1018 10 E/SE 18.5
Ieri h: 13:00 poco_nuvoloso Poco Nuvoloso 25 19 69 1019 10 E/SE 16.7
Ieri h: 12:30 poco_nuvoloso Poco Nuvoloso 24 19 73 1019 10 E/SE 18.5
Ieri h: 12:00 poco_nuvoloso Poco Nuvoloso 24 18 69 1019 10 E 16.7
Ieri h: 11:30 poco_nuvoloso Poco Nuvoloso 23 17 68 1019 10 E 22.2
Ieri h: 11:00 sereno Sereno 24 18 69 1019 10 E 18.5
Ieri h: 10:30 poco_nuvoloso Poco Nuvoloso 23 17 68 1019 10 E 16.7
Ieri h: 10:00 poco_nuvoloso Poco Nuvoloso 23 17 68 1019 10 E 18.5
Ieri h: 09:30 poco_nuvoloso Poco Nuvoloso 22 17 73 1018 10 E 18.5
Ieri h: 09:00 poco_nuvoloso Poco Nuvoloso 22 17 73 1018 10 E 18.5
Ieri h: 08:30 nuvoloso Nuvoloso 21 17 77 1018 10 E 14.8
Ieri h: 08:00 molto_nuvoloso Molto Nuvoloso 20 17 82 1018 10 E 13
Ieri h: 07:30 molto_nuvoloso Molto Nuvoloso 20 16 77 1018 10 E 11.1
Ieri h: 07:00 coperto Coperto 20 16 77 1018 10 E 9.3
Ieri h: 06:30 molto_nuvoloso Molto Nuvoloso 20 16 77 1018 10 E/NE 7.4
Ieri h: 06:00 nuvoloso Nuvoloso 19 16 82 1018 10 E 9.3
Ieri h: 05:30 poco_nuvoloso Poco Nuvoloso 18 16 88 1018 10 E 11.1
Ieri h: 05:00 poco_nuvoloso Poco Nuvoloso 18 15 82 1017 10 E 11.1